DW9029 Weather Reports


Display with metric or nautical units.
time (UTC)temp
F
wind
direction
speed
MPH
gust
MPH
rain 1hr
in
rain 24hr
in
rain mn
in
humidity
%
barometer
mb
20260509083905 64 185 7.0 21.0 0.00 0.00 0.00 76 1007.8
20260509083404 64 178 7.0 22.0 0.00 0.00 0.00 77 1007.9
20260509080905 64 154 9.0 22.0 0.00 0.00 0.00 78 1007.7
20260509080405 64 162 9.0 17.0 0.00 0.00 0.00 77 1007.6
20260509074905 64 160 7.0 18.0 0.00 0.00 0.00 77 1007.8
20260509074404 63 169 5.0 14.0 0.00 0.00 0.00 79 1007.7
20260509073905 62 186 10.0 20.0 0.00 0.00 0.00 79 1007.6
20260509071905 62 166 10.0 18.0 0.00 0.00 0.00 80 1007.9
20260509071405 61 167 6.0 16.0 0.00 0.00 0.00 81 1007.9
20260509070905 61 170 9.0 20.0 0.00 0.00 0.00 81 1007.8
20260509070405 61 169 8.0 18.0 0.00 0.00 0.00 82 1007.8
20260509064905 61 169 3.0 12.0 0.00 0.00 0.00 81 1007.6
20260509063904 61 168 10.0 17.0 0.00 0.00 0.00 81 1007.5
20260509063405 61 178 7.0 16.0 0.00 0.00 0.00 82 1007.5
20260509061906 61 173 2.0 10.0 0.00 0.00 0.00 83 1007.4
20260509061405 61 169 2.0 13.0 0.00 0.00 0.00 83 1007.3
20260509054905 61 155 2.0 10.0 0.00 0.00 0.00 82 1007.2
20260509054405 61 160 4.0 10.0 0.00 0.00 0.00 82 1007.1
20260509053905 61 156 5.0 10.0 0.00 0.00 0.00 83 1007.2
20260509053405 61 170 3.0 14.0 0.00 0.00 0.00 82 1007.2
20260509051905 61 174 1.0 3.0 0.00 0.00 0.00 80 1007.4
20260509051405 61 178 0.0 0.0 0.00 0.00 0.00 80 1007.2
20260509050905 61 179 0.0 1.0 0.00 0.00 0.00 80 1007.1
20260509050405 61 180 0.0 1.0 0.00 0.00 0.00 80 1007.1
20260509044905 61 180 0.0 0.0 0.00 0.00 0.00 80 1006.9
20260509043905 61 180 0.0 0.0 0.00 0.00 0.00 79 1006.8
20260509043404 61 182 0.0 2.0 0.00 0.00 0.00 79 1006.9
20260509041905 61 185 0.0 5.0 0.00 0.00 0.00 78 1007.2
20260509041405 61 183 0.0 0.0 0.00 0.00 0.00 78 1007.1
20260509040904 61 176 1.0 3.0 0.00 0.00 0.00 77 1007.1
20260509040405 61 213 0.0 0.0 0.00 0.00 0.00 76 1007.1
20260509034905 61 184 0.0 0.0 0.00 0.00 0.00 76 1007.0
20260509034405 61 184 0.0 0.0 0.00 0.00 0.00 76 1007.1
20260509033905 61 184 0.0 0.0 0.00 0.00 0.00 76 1007.2
20260509033405 61 184 0.0 0.0 0.00 0.00 0.00 76 1007.1
20260509031905 61 184 0.0 0.0 0.00 0.00 0.00 76 1007.3
20260509031405 61 184 0.0 0.0 0.00 0.00 0.00 76 1007.2
20260509030905 61 184 0.0 0.0 0.00 0.00 0.00 76 1007.2
20260509024905 61 184 0.0 0.0 0.00 0.00 0.00 76 1007.4
20260509024405 61 184 0.0 0.0 0.00 0.00 0.00 76 1007.4
20260509023905 61 186 0.0 1.0 0.00 0.00 0.00 76 1007.5
20260509023405 61 186 0.0 0.0 0.00 0.00 0.00 76 1007.5
20260509021905 61 186 0.0 0.0 0.00 0.00 0.00 76 1007.6
20260509021405 61 186 0.0 0.0 0.00 0.00 0.00 77 1007.5
20260509020905 61 186 0.0 0.0 0.00 0.00 0.00 77 1007.5
20260509020405 61 186 0.0 0.0 0.00 0.00 0.00 76 1007.5
20260509014905 61 186 0.0 0.0 0.00 0.00 0.00 76 1007.6
20260509014404 61 186 0.0 0.0 0.00 0.00 0.00 76 1007.7
20260509013905 61 186 0.0 0.0 0.00 0.00 0.00 76 1007.7
20260509013404 61 192 0.0 0.0 0.00 0.00 0.00 76 1007.7
20260509011905 61 192 0.0 0.0 0.00 0.00 0.00 75 1007.9
20260509010905 61 192 0.0 0.0 0.00 0.00 0.00 75 1008.0
20260509010405 61 192 0.0 0.0 0.00 0.00 0.00 76 1008.0
20260509004905 61 192 0.0 0.0 0.00 0.00 0.00 75 1008.1
20260509004404 61 192 0.0 0.0 0.00 0.00 0.00 75 1008.1
20260509003905 62 192 0.0 0.0 0.00 0.00 0.00 75 1008.1
20260509003405 62 192 0.0 0.0 0.00 0.00 0.00 74 1008.2
20260509001905 62 192 0.0 0.0 0.00 0.00 0.00 73 1008.3
20260509001405 62 192 0.0 0.0 0.00 0.00 0.00 73 1008.5
20260509000904 62 192 0.0 0.0 0.00 0.00 0.00 73 1008.5
20260509000405 62 192 0.0 0.0 0.00 0.00 0.00 73 1008.5
20260508234905 63 192 0.0 0.0 0.00 0.00 0.00 72 1008.6
20260508233405 63 208 0.0 5.0 0.00 0.00 0.00 72 1008.7
20260508231905 63 210 2.0 5.0 0.00 0.00 0.00 71 1008.9
20260508231405 64 223 1.0 6.0 0.00 0.00 0.00 71 1009.0
20260508230905 64 221 0.0 0.0 0.00 0.00 0.00 71 1009.0
20260508230405 64 210 0.0 6.0 0.00 0.00 0.00 71 1009.1
20260508224905 63 203 1.0 5.0 0.00 0.00 0.00 70 1009.1
20260508223405 63 215 1.0 6.0 0.00 0.00 0.00 69 1009.2
20260508221905 63 209 0.0 3.0 0.00 0.00 0.00 69 1009.0
20260508221405 63 236 0.0 3.0 0.00 0.00 0.00 68 1009.1
20260508220905 63 258 1.0 3.0 0.00 0.00 0.00 68 1009.1
20260508214905 63 260 1.0 5.0 0.00 0.00 0.00 67 1009.0
20260508214405 63 267 1.0 3.0 0.00 0.00 0.00 66 1009.1
20260508213905 63 242 1.0 6.0 0.00 0.00 0.00 66 1009.1
20260508213405 63 263 0.0 9.0 0.00 0.00 0.00 66 1009.1
20260508211905 64 248 1.0 6.0 0.00 0.00 0.00 65 1009.1
20260508211405 64 236 3.0 7.0 0.00 0.00 0.00 65 1009.0
20260508210905 64 277 1.0 5.0 0.00 0.00 0.00 64 1009.1
20260508210405 64 256 1.0 6.0 0.00 0.00 0.00 64 1009.1
20260508204905 64 222 3.0 7.0 0.00 0.00 0.00 64 1008.9
20260508204405 64 232 2.0 7.0 0.00 0.00 0.00 64 1008.8
20260508203904 64 223 4.0 10.0 0.00 0.00 0.00 63 1008.7
20260508201904 64 257 1.0 8.0 0.00 0.00 0.00 60 1008.5
20260508201405 65 223 3.0 10.0 0.00 0.00 0.00 59 1008.5
20260508200904 65 236 5.0 14.0 0.00 0.00 0.00 59 1008.5
20260508200405 65 211 5.0 12.0 0.00 0.00 0.00 58 1008.4
20260508194905 66 230 5.0 9.0 0.00 0.00 0.00 55 1008.2
20260508194404 66 235 3.0 9.0 0.00 0.00 0.00 54 1008.1
20260508193405 66 224 3.0 16.0 0.00 0.00 0.00 52 1008.1
20260508191905 67 213 9.0 12.0 0.00 0.00 0.00 50 1007.9
20260508191405 68 225 5.0 14.0 0.00 0.00 0.00 50 1007.9
20260508190905 68 212 6.0 10.0 0.00 0.00 0.00 51 1007.8
20260508190405 68 217 5.0 12.0 0.00 0.00 0.00 52 1007.7
20260508184906 68 226 6.0 12.0 0.00 0.00 0.00 53 1007.6
20260508184405 69 220 5.0 10.0 0.00 0.00 0.00 53 1007.5
20260508183905 69 228 3.0 10.0 0.00 0.00 0.00 53 1007.5
20260508183405 69 205 4.0 12.0 0.00 0.00 0.00 54 1007.4
20260508181905 70 233 6.0 15.0 0.00 0.00 0.00 52 1007.3
20260508181405 70 216 9.0 15.0 0.00 0.00 0.00 51 1007.3
20260508180905 71 227 6.0 12.0 0.00 0.00 0.00 50 1007.2
20260508180404 71 226 3.0 10.0 0.00 0.00 0.00 51 1007.1
20260508174904 71 232 7.0 12.0 0.00 0.00 0.00 50 1007.0
20260508174405 71 225 5.0 12.0 0.00 0.00 0.00 50 1007.0
20260508173904 72 246 5.0 10.0 0.00 0.00 0.00 49 1006.9
20260508173404 72 220 5.0 12.0 0.00 0.00 0.00 49 1006.9
20260508171905 73 248 4.0 9.0 0.00 0.00 0.00 47 1006.9
20260508170904 73 223 3.0 6.0 0.00 0.00 0.00 47 1006.8
20260508170405 73 163 3.0 12.0 0.00 0.00 0.00 47 1006.9
20260508164905 73 207 2.0 12.0 0.00 0.00 0.00 47 1006.9
20260508164405 73 213 5.0 10.0 0.00 0.00 0.00 47 1007.0
20260508163905 73 141 7.0 12.0 0.00 0.00 0.00 46 1007.0
20260508163405 74 197 3.0 13.0 0.00 0.00 0.00 45 1007.0
20260508161905 74 210 4.0 8.0 0.00 0.00 0.00 44 1007.1
20260508161405 74 205 7.0 12.0 0.00 0.00 0.00 44 1007.2
20260508160904 74 154 3.0 7.0 0.00 0.00 0.00 44 1007.2
20260508160404 74 232 6.0 13.0 0.00 0.00 0.00 44 1007.3
20260508154405 74 206 4.0 7.0 0.00 0.00 0.00 44 1007.2
20260508153405 74 190 0.0 12.0 0.00 0.00 0.00 43 1007.2
20260508151904 74 234 5.0 12.0 0.00 0.00 0.00 43 1007.5
20260508151405 74 217 6.0 10.0 0.00 0.00 0.00 43 1007.6
20260508150905 73 130 1.0 12.0 0.00 0.00 0.00 43 1007.6
20260508150405 73 169 3.0 9.0 0.00 0.00 0.00 43 1007.7
20260508144905 74 135 2.0 12.0 0.00 0.00 0.00 43 1008.0
20260508143905 73 213 1.0 6.0 0.00 0.00 0.00 42 1008.2
20260508143404 73 172 5.0 10.0 0.00 0.00 0.00 44 1008.4
20260508141904 73 102 6.0 12.0 0.00 0.00 0.00 43 1008.7
20260508140905 73 212 2.0 9.0 0.00 0.00 0.00 43 1008.7
20260508134905 72 213 0.0 2.0 0.00 0.00 0.00 44 1009.2
20260508134405 72 231 4.0 12.0 0.00 0.00 0.00 44 1009.2
20260508133905 72 190 2.0 12.0 0.00 0.00 0.00 44 1009.3
20260508133405 72 193 7.0 10.0 0.00 0.00 0.00 44 1009.4
20260508131905 71 203 0.0 7.0 0.00 0.00 0.00 47 1009.4
20260508130905 71 201 5.0 12.0 0.00 0.00 0.00 46 1009.5
20260508130405 71 218 4.0 14.0 0.00 0.00 0.00 46 1009.6
20260508124905 70 201 0.0 3.0 0.00 0.00 0.00 46 1009.9
20260508124404 70 206 5.0 10.0 0.00 0.00 0.00 45 1010.0
20260508123905 70 261 0.0 7.0 0.00 0.00 0.00 47 1009.9
20260508123405 70 218 5.0 10.0 0.00 0.00 0.00 46 1010.0
20260508121905 69 197 4.0 10.0 0.00 0.00 0.00 48 1010.2
20260508121405 70 199 1.0 9.0 0.00 0.00 0.00 48 1010.2
20260508120904 70 184 2.0 7.0 0.00 0.00 0.00 48 1010.3
20260508120404 70 140 3.0 9.0 0.00 0.00 0.00 48 1010.3
20260508114904 70 119 5.0 12.0 0.00 0.00 0.00 50 1010.4
20260508114405 69 219 5.0 8.0 0.00 0.00 0.00 50 1010.4
20260508113904 69 183 4.0 7.0 0.00 0.00 0.00 51 1010.5
20260508111904 69 126 0.0 8.0 0.00 0.00 0.00 51 1010.6
20260508111405 69 183 2.0 8.0 0.00 0.00 0.00 51 1010.6
20260508110904 68 178 3.0 9.0 0.00 0.00 0.00 51 1010.7
20260508110404 68 181 6.0 12.0 0.00 0.00 0.00 52 1010.7
20260508104905 69 213 2.0 6.0 0.00 0.00 0.00 50 1010.8
20260508104404 68 65 0.0 8.0 0.00 0.00 0.00 50 1010.7
20260508103905 68 168 5.0 10.0 0.00 0.00 0.00 50 1010.8
20260508103405 68 208 5.0 10.0 0.00 0.00 0.00 52 1010.9
20260508101405 67 229 4.0 8.0 0.00 0.00 0.00 53 1011.0
20260508100905 66 222 1.0 3.0 0.00 0.00 0.00 56 1011.0
20260508100405 66 205 6.0 10.0 0.00 0.00 0.00 55 1011.2
20260508094905 66 226 5.0 8.0 0.00 0.00 0.00 56 1011.2
20260508094405 66 206 3.0 8.0 0.00 0.00 0.00 57 1011.3
20260508093904 66 216 4.0 12.0 0.00 0.00 0.00 59 1011.4
20260508093405 66 186 3.0 12.0 0.00 0.00 0.00 58 1011.4
20260508091405 65 219 6.0 12.0 0.00 0.00 0.00 61 1011.5
20260508090905 64 219 5.0 9.0 0.00 0.00 0.00 63 1011.4
20260508084405 64 195 1.0 7.0 0.00 0.00 0.00 66 1011.4